| time (UTC) | temp C | wind direction | speed KPH | gust KPH | rain 1hr cm | rain 24hr cm | rain mn cm | humidity % | barometer mb |
| 20260831103006 | 8 | 197 | 0.0 | 0.0 | 0.00 | 0.00 | 0.00 | 91 | 1016.0 |
| 20260831101506 | 8 | 197 | 0.0 | 0.0 | 0.00 | 0.00 | 0.00 | 91 | 1016.0 |
| 20260831100112 | 8 | 197 | 0.0 | 0.0 | 0.00 | 0.00 | 0.00 | 91 | 1016.2 |
| 20260831094629 | 9 | 197 | 0.0 | 0.0 | 0.00 | 0.00 | 0.00 | 91 | 1016.4 |
| 20260831093103 | 8 | 197 | 0.0 | 0.0 | 0.00 | 0.00 | 0.00 | 91 | 1016.5 |
| 20260831091502 | 9 | 197 | 0.0 | 0.0 | 0.00 | 0.00 | 0.00 | 91 | 1016.6 |
| 20260831090112 | 9 | 197 | 0.0 | 0.0 | 0.00 | 0.00 | 0.00 | 91 | 1016.7 |
| 20260831084557 | 9 | 197 | 0.0 | 0.0 | 0.00 | 0.00 | 0.00 | 91 | 1016.8 |
| 20260831083059 | 10 | 197 | 0.0 | 0.0 | 0.00 | 0.00 | 0.00 | 91 | 1016.9 |
| 20260831081603 | 10 | 197 | 0.0 | 0.0 | 0.00 | 0.00 | 0.00 | 91 | 1017.1 |
| 20260831080106 | 10 | 197 | 0.0 | 0.0 | 0.00 | 0.00 | 0.00 | 91 | 1017.1 |
| 20260831074551 | 10 | 197 | 0.0 | 0.0 | 0.00 | 0.00 | 0.00 | 90 | 1017.1 |
| 20260831073058 | 10 | 197 | 0.0 | 0.0 | 0.00 | 0.00 | 0.00 | 90 | 1017.2 |
| 20260831071612 | 11 | 197 | 0.0 | 1.6 | 0.00 | 0.00 | 0.00 | 90 | 1017.4 |
| 20260831064543 | 11 | 197 | 0.0 | 0.0 | 0.00 | 0.00 | 0.00 | 90 | 1017.7 |
| 20260831063058 | 11 | 197 | 0.0 | 0.0 | 0.00 | 0.00 | 0.00 | 90 | 1017.9 |
| 20260831061601 | 11 | 197 | 0.0 | 0.0 | 0.00 | 0.00 | 0.00 | 90 | 1017.9 |
| 20260831060113 | 11 | 197 | 0.0 | 0.0 | 0.00 | 0.00 | 0.00 | 90 | 1017.8 |
| 20260831054549 | 11 | 197 | 0.0 | 0.0 | 0.00 | 0.00 | 0.00 | 90 | 1017.9 |
| 20260831053102 | 12 | 197 | 0.0 | 0.0 | 0.00 | 0.00 | 0.00 | 89 | 1018.1 |
| 20260831051502 | 12 | 197 | 0.0 | 0.0 | 0.00 | 0.00 | 0.00 | 88 | 1018.1 |
| 20260831050118 | 13 | 197 | 0.0 | 0.0 | 0.00 | 0.00 | 0.00 | 87 | 1018.2 |
| 20260831044557 | 13 | 197 | 0.0 | 0.0 | 0.00 | 0.00 | 0.00 | 87 | 1018.3 |
| 20260831043102 | 14 | 197 | 0.0 | 0.0 | 0.00 | 0.00 | 0.00 | 86 | 1018.3 |
| 20260831041508 | 15 | 192 | 0.0 | 4.8 | 0.00 | 0.00 | 0.00 | 86 | 1018.5 |
| 20260831040115 | 15 | 219 | 0.0 | 3.2 | 0.00 | 0.00 | 0.00 | 85 | 1018.5 |
| 20260831034601 | 15 | 213 | 0.0 | 3.2 | 0.00 | 0.00 | 0.00 | 84 | 1018.4 |
| 20260831033005 | 15 | 217 | 0.0 | 0.0 | 0.00 | 0.00 | 0.00 | 84 | 1018.3 |
| 20260831031505 | 15 | 223 | 0.0 | 1.6 | 0.00 | 0.00 | 0.00 | 83 | 1018.3 |
| 20260831030113 | 15 | 218 | 0.0 | 4.8 | 0.00 | 0.00 | 0.00 | 83 | 1018.4 |
| 20260831024600 | 15 | 226 | 0.0 | 3.2 | 0.00 | 0.00 | 0.00 | 83 | 1018.4 |
| 20260831023108 | 15 | 235 | 0.0 | 3.2 | 0.00 | 0.00 | 0.00 | 82 | 1018.5 |
| 20260831021609 | 16 | 207 | 1.6 | 4.8 | 0.00 | 0.00 | 0.00 | 82 | 1018.6 |
| 20260831020116 | 16 | 229 | 0.0 | 6.4 | 0.00 | 0.00 | 0.00 | 81 | 1018.7 |
| 20260831014553 | 16 | 236 | 1.6 | 6.4 | 0.00 | 0.00 | 0.00 | 80 | 1018.8 |
| 20260831013057 | 16 | 195 | 1.6 | 6.4 | 0.00 | 0.00 | 0.00 | 79 | 1018.9 |
| 20260831011607 | 17 | 236 | 0.0 | 4.8 | 0.00 | 0.00 | 0.00 | 78 | 1018.9 |
| 20260831004549 | 16 | 210 | 1.6 | 8.0 | 0.00 | 0.00 | 0.00 | 79 | 1019.0 |
| 20260831003049 | 16 | 185 | 1.6 | 12.9 | 0.00 | 0.00 | 0.00 | 79 | 1019.2 |
| 20260831001553 | 16 | 191 | 3.2 | 9.7 | 0.00 | 0.00 | 0.00 | 78 | 1019.3 |
| 20260831000057 | 17 | 193 | 6.4 | 12.9 | 0.00 | 0.00 | 0.00 | 75 | 1019.4 |
| 20260830234546 | 17 | 240 | 3.2 | 11.3 | 0.00 | 0.00 | 0.00 | 74 | 1019.5 |
| 20260830233054 | 17 | 200 | 4.8 | 9.7 | 0.00 | 0.00 | 0.00 | 72 | 1019.5 |
| 20260830231558 | 17 | 221 | 3.2 | 12.9 | 0.00 | 0.00 | 0.00 | 72 | 1019.6 |
| 20260830224600 | 18 | 246 | 4.8 | 11.3 | 0.00 | 0.00 | 0.00 | 67 | 1019.7 |
| 20260830223056 | 18 | 229 | 3.2 | 9.7 | 0.00 | 0.00 | 0.00 | 66 | 1019.7 |
| 20260830221558 | 18 | 209 | 1.6 | 8.0 | 0.00 | 0.00 | 0.00 | 64 | 1019.7 |
| 20260830220111 | 18 | 192 | 4.8 | 9.7 | 0.00 | 0.00 | 0.00 | 67 | 1019.9 |
| 20260830214546 | 18 | 240 | 4.8 | 12.9 | 0.00 | 0.00 | 0.00 | 70 | 1020.1 |
| 20260830213110 | 18 | 255 | 3.2 | 14.5 | 0.00 | 0.00 | 0.00 | 68 | 1020.3 |
| 20260830211600 | 19 | 230 | 3.2 | 11.3 | 0.00 | 0.00 | 0.00 | 65 | 1020.0 |
| 20260830204600 | 19 | 300 | 0.0 | 8.0 | 0.00 | 0.00 | 0.00 | 64 | 1020.0 |
| 20260830203102 | 19 | 345 | 1.6 | 11.3 | 0.00 | 0.00 | 0.00 | 64 | 1019.9 |
| 20260830201604 | 19 | 248 | 3.2 | 8.0 | 0.00 | 0.00 | 0.00 | 62 | 1019.9 |
| 20260830194547 | 19 | 351 | 3.2 | 8.0 | 0.00 | 0.00 | 0.00 | 64 | 1019.9 |
| 20260830193048 | 19 | 227 | 0.0 | 4.8 | 0.00 | 0.00 | 0.00 | 65 | 1020.0 |
| 20260830191554 | 18 | 346 | 1.6 | 9.7 | 0.00 | 0.00 | 0.00 | 66 | 1020.1 |
| 20260830190103 | 18 | 358 | 4.8 | 9.7 | 0.00 | 0.00 | 0.00 | 68 | 1020.1 |
| 20260830184555 | 18 | 321 | 1.6 | 6.4 | 0.00 | 0.00 | 0.00 | 67 | 1020.1 |
| 20260830183054 | 18 | 248 | 0.0 | 4.8 | 0.00 | 0.00 | 0.00 | 68 | 1020.2 |
| 20260830181605 | 18 | 352 | 1.6 | 9.7 | 0.00 | 0.00 | 0.00 | 68 | 1020.4 |
| 20260830180104 | 18 | 339 | 3.2 | 9.7 | 0.00 | 0.00 | 0.00 | 67 | 1020.3 |
| 20260830174557 | 18 | 360 | 3.2 | 8.0 | 0.00 | 0.00 | 0.00 | 68 | 1020.2 |
| 20260830173054 | 18 | 1 | 0.0 | 8.0 | 0.00 | 0.00 | 0.00 | 68 | 1020.1 |
| 20260830171603 | 18 | 360 | 3.2 | 11.3 | 0.00 | 0.00 | 0.00 | 68 | 1020.1 |
| 20260830164549 | 17 | 349 | 1.6 | 4.8 | 0.00 | 0.00 | 0.00 | 71 | 1020.2 |
| 20260830163052 | 17 | 324 | 0.0 | 6.4 | 0.00 | 0.00 | 0.00 | 73 | 1020.2 |
| 20260830161606 | 16 | 357 | 0.0 | 4.8 | 0.00 | 0.00 | 0.00 | 74 | 1020.3 |
| 20260830160055 | 16 | 34 | 0.0 | 0.0 | 0.00 | 0.00 | 0.00 | 76 | 1020.3 |
| 20260830154539 | 15 | 339 | 0.0 | 3.2 | 0.00 | 0.00 | 0.00 | 78 | 1020.3 |
| 20260830153051 | 13 | 4 | 0.0 | 4.8 | 0.00 | 0.00 | 0.00 | 81 | 1020.2 |
| 20260830151547 | 13 | 208 | 0.0 | 1.6 | 0.00 | 0.00 | 0.00 | 83 | 1020.3 |
| 20260830150027 | 12 | 208 | 0.0 | 1.6 | 0.00 | 0.00 | 0.00 | 85 | 1020.1 |
| 20260830144530 | 12 | 208 | 0.0 | 0.0 | 0.00 | 0.00 | 0.00 | 88 | 1020.1 |
| 20260830143053 | 11 | 208 | 0.0 | 1.6 | 0.00 | 0.00 | 0.00 | 89 | 1020.1 |
| 20260830141546 | 11 | 208 | 0.0 | 1.6 | 0.00 | 0.00 | 0.00 | 90 | 1020.0 |
| 20260830140050 | 10 | 208 | 0.0 | 1.6 | 0.00 | 0.00 | 0.00 | 90 | 1020.0 |
| 20260830134538 | 10 | 208 | 0.0 | 1.6 | 0.00 | 0.00 | 0.00 | 90 | 1019.9 |
| 20260830133039 | 10 | 209 | 0.0 | 1.6 | 0.00 | 0.00 | 0.00 | 91 | 1019.8 |
| 20260830131543 | 10 | 209 | 0.0 | 0.0 | 0.00 | 0.00 | 0.00 | 90 | 1019.7 |
| 20260830130029 | 10 | 209 | 0.0 | 1.6 | 0.00 | 0.00 | 0.00 | 90 | 1019.6 |
| 20260830124532 | 10 | 209 | 0.0 | 0.0 | 0.00 | 0.00 | 0.00 | 90 | 1019.5 |
| 20260830123041 | 11 | 209 | 0.0 | 0.0 | 0.00 | 0.00 | 0.00 | 90 | 1019.7 |
| 20260830121545 | 11 | 209 | 0.0 | 0.0 | 0.00 | 0.00 | 0.00 | 90 | 1019.7 |
| 20260830120054 | 11 | 209 | 0.0 | 0.0 | 0.00 | 0.00 | 0.00 | 90 | 1019.9 |
| 20260830114603 | 10 | 209 | 0.0 | 0.0 | 0.00 | 0.00 | 0.00 | 90 | 1019.9 |
| 20260830113050 | 10 | 209 | 0.0 | 1.6 | 0.00 | 0.00 | 0.00 | 91 | 1020.0 |
| 20260830111550 | 10 | 209 | 0.0 | 0.0 | 0.00 | 0.00 | 0.00 | 91 | 1020.0 |
| 20260830110054 | 10 | 209 | 0.0 | 0.0 | 0.00 | 0.00 | 0.00 | 91 | 1019.9 |
| 20260830104540 | 10 | 209 | 0.0 | 0.0 | 0.00 | 0.00 | 0.00 | 90 | 1019.8 |